TimePST,TemperatureF,Dew PointF,Humidity,Sea Level PressureIn,VisibilityMPH,Wind Direction,Wind SpeedMPH,Gust SpeedMPH,PrecipitationIn,Events,Conditions,WindDirDegrees,DateUTC
12:56 AM,25.0,-0.9,33,30.50,10.0,SW,6.9,-,N/A,,Clear,230,2013-01-16 08:56:00
1:56 AM,24.1,-0.9,34,30.51,10.0,Calm,Calm,-,N/A,,Clear,0,2013-01-16 09:56:00
2:56 AM,23.0,-0.9,35,30.50,10.0,SSW,3.5,-,N/A,,Clear,200,2013-01-16 10:56:00
3:56 AM,24.1,3.0,40,30.48,10.0,SSW,8.1,-,N/A,,Clear,200,2013-01-16 11:56:00
4:56 AM,19.9,-0.9,40,30.50,10.0,WSW,4.6,-,N/A,,Clear,250,2013-01-16 12:56:00
5:56 AM,18.0,-0.9,44,30.51,10.0,Calm,Calm,-,N/A,,Clear,0,2013-01-16 13:56:00
6:56 AM,19.0,3.0,50,30.53,10.0,South,3.5,-,N/A,,Partly Cloudy,190,2013-01-16 14:56:00
7:56 AM,24.1,5.0,44,30.54,10.0,SSW,3.5,-,N/A,,Partly Cloudy,200,2013-01-16 15:56:00
8:56 AM,33.1,5.0,31,30.55,10.0,Calm,Calm,-,N/A,,Clear,0,2013-01-16 16:56:00
9:56 AM,37.0,1.9,23,30.54,10.0,North,3.5,-,N/A,,Clear,360,2013-01-16 17:56:00
10:56 AM,41.0,3.0,21,30.51,10.0,Calm,Calm,-,N/A,,Clear,0,2013-01-16 18:56:00
11:56 AM,46.9,5.0,18,30.45,10.0,SE,3.5,-,N/A,,Clear,140,2013-01-16 19:56:00
12:56 PM,51.1,9.0,18,30.40,10.0,Calm,Calm,-,N/A,,Clear,0,2013-01-16 20:56:00
1:56 PM,54.0,12.0,19,30.37,10.0,Variable,3.5,-,N/A,,Clear,0,2013-01-16 21:56:00
2:56 PM,55.9,12.9,18,30.35,10.0,Calm,Calm,-,N/A,,Clear,0,2013-01-16 22:56:00
3:56 PM,55.9,12.9,18,30.36,10.0,Calm,Calm,-,N/A,,Clear,0,2013-01-16 23:56:00
4:56 PM,51.1,12.0,21,30.37,10.0,North,3.5,-,N/A,,Clear,360,2013-01-17 00:56:00
5:56 PM,45.0,10.0,24,30.39,10.0,Calm,Calm,-,N/A,,Clear,0,2013-01-17 01:56:00
6:56 PM,37.0,7.0,29,30.40,10.0,WSW,3.5,-,N/A,,Clear,240,2013-01-17 02:56:00
7:56 PM,34.0,6.1,31,30.41,10.0,SSW,9.2,-,N/A,,Clear,210,2013-01-17 03:56:00
8:56 PM,34.0,9.0,35,30.39,10.0,SW,6.9,-,N/A,,Clear,220,2013-01-17 04:56:00
9:56 PM,32.0,8.1,37,30.39,10.0,Calm,Calm,-,N/A,,Clear,0,2013-01-17 05:56:00
10:56 PM,28.9,7.0,40,30.38,10.0,SW,4.6,-,N/A,,Clear,220,2013-01-17 06:56:00
11:56 PM,26.1,6.1,43,30.39,10.0,NW,3.5,-,N/A,,Clear,310,2013-01-17 07:56:00